User: anonymous   Login
Location: Newark
(52.4787°S, 179.0532°W)
Time: 18:42:24
(UTC+00:00)
Language:

DELFI C3 - Orbit

View from above orbital plane
View from above orbital plane
View from above satellite
View from above satellite

Ground track
Ground track

The orbit data is extracted from the following two-line orbital elements,

1 32789U 08021G   19348.41604448  .00001299  00000-0  89949-4 0  9990
2 32789  97.4433  32.5072 0011123 228.5283 131.4990 15.07319941633883
Epoch (UTC): 14 December 2019 09:59:06
Eccentricity: 0.0011123
inclination: 97.4433°
perigee height: 536 km
apogee height: 552 km
right ascension of ascending node: 32.5072°
argument of perigee: 228.5283°
revolutions per day: 15.07319941
mean anomaly at epoch: 131.4990°
orbit number at epoch: 63388

The dashed part of the orbit path shows where the satellite is in the earth's shadow,  

DLR